Satellite: ORSTED
Catalog number: 25635
Epoch time:      103020.57984010
Element set:     811 
Inclination:       96.4474 deg
RA of node:        13.7578 deg
Eccentricity:    0.0146735
Arg of perigee:    61.3836 deg
Mean anomaly:     300.2033 deg
Mean motion:   14.44782799 rev/day
Decay rate:    9.8199E-006 rev/day^2
Epoch rev:           20575
Checksum:              322

Satellite: SUNSAT
Catalog number: 25636
Epoch time:      103017.88818205
Element set:     657 
Inclination:       96.4513 deg
RA of node:        10.4338 deg
Eccentricity:    0.0150726
Arg of perigee:    75.9281 deg
Mean anomaly:     285.8610 deg
Mean motion:   14.42922471 rev/day
Decay rate:    5.0899E-006 rev/day^2
Epoch rev:           20524
Checksum:              314

Satellite: UOSAT 12
Catalog number: 25693
Epoch time:      103021.50693843
Element set:     631 
Inclination:       64.5612 deg
RA of node:        96.6745 deg
Eccentricity:    0.0017720
Arg of perigee:   317.2701 deg
Mean anomaly:      42.7023 deg
Mean motion:   14.76356154 rev/day
Decay rate:    5.1900E-006 rev/day^2
Epoch rev:           20211
Checksum:              276

Satellite: FENGYUN 1C
Catalog number: 25730
Epoch time:      103020.87801832
Element set:     747 
Inclination:       98.6358 deg
RA of node:        46.3551 deg
Eccentricity:    0.0015393
Arg of perigee:    84.9618 deg
Mean anomaly:     275.3310 deg
Mean motion:   14.11731344 rev/day
Decay rate:    8.7000E-007 rev/day^2
Epoch rev:           19058
Checksum:              301

Satellite: ASTRA 1H
Catalog number: 25785
Epoch time:      103013.00000000
Element set:     368 
Inclination:        0.0122 deg
RA of node:       319.8851 deg
Eccentricity:    0.0002995
Arg of perigee:    65.1991 deg
Mean anomaly:     106.1621 deg
Mean motion:    1.00273184 rev/day
Decay rate:    1.3899E-006 rev/day^2
Epoch rev:            1313
Checksum:              244

Satellite: TERRA
Catalog number: 25994
Epoch time:      103021.15830410
Element set:     621 
Inclination:       98.2055 deg
RA of node:        97.8130 deg
Eccentricity:    0.0001030
Arg of perigee:    77.4833 deg
Mean anomaly:     282.6481 deg
Mean motion:   14.57098348 rev/day
Decay rate:    6.0299E-006 rev/day^2
Epoch rev:           16453
Checksum:              299

Satellite: JAWSAT
Catalog number: 26061
Epoch time:      103020.56084044
Element set:     745 
Inclination:      100.2114 deg
RA of node:        72.2392 deg
Eccentricity:    0.0035227
Arg of perigee:     2.2339 deg
Mean anomaly:     357.8995 deg
Mean motion:   14.37791279 rev/day
Decay rate:    8.0099E-006 rev/day^2
Epoch rev:           15636
Checksum:              394

Satellite: OPAL
Catalog number: 26063
Epoch time:      103020.55960523
Element set:     702 
Inclination:      100.2164 deg
RA of node:        69.8700 deg
Eccentricity:    0.0037370
Arg of perigee:     8.8519 deg
Mean anomaly:     351.3317 deg
Mean motion:   14.35469251 rev/day
Decay rate:    2.5300E-006 rev/day^2
Epoch rev:           15622
Checksum:              264

Satellite: ASUSAT
Catalog number: 26065
Epoch time:      103020.86552617
Element set:     713 
Inclination:      100.2162 deg
RA of node:        70.3745 deg
Eccentricity:    0.0037459
Arg of perigee:     9.4455 deg
Mean anomaly:     350.7421 deg
Mean motion:   14.35495858 rev/day
Decay rate:    2.8100E-006 rev/day^2
Epoch rev:           15626
Checksum:              288

Satellite: GOES 11
Catalog number: 26352
Epoch time:      103020.54661892
Element set:     983 
Inclination:        0.0726 deg
RA of node:       109.4312 deg
Eccentricity:    0.0004509
Arg of perigee:   167.9196 deg
Mean anomaly:     286.3734 deg
Mean motion:    1.00262399 rev/day
Decay rate:   -3.1999E-007 rev/day^2
Epoch rev:             994
Checksum:              313

Satellite: EUTELSAT W4
Catalog number: 26369
Epoch time:      103020.74646432
Element set:     342 
Inclination:        0.0515 deg
RA of node:        36.9954 deg
Eccentricity:    0.0007242
Arg of perigee:   258.1422 deg
Mean anomaly:     129.3333 deg
Mean motion:    1.00272559 rev/day
Decay rate:    1.6200E-006 rev/day^2
Epoch rev:             976
Checksum:              267

Satellite: FENGYUN 2B
Catalog number: 26382
Epoch time:      103020.61290044
Element set:     772 
Inclination:        0.6383 deg
RA of node:       287.1671 deg
Eccentricity:    0.0000407
Arg of perigee:   147.3433 deg
Mean anomaly:       9.9863 deg
Mean motion:    1.00262967 rev/day
Decay rate:   -3.2099E-006 rev/day^2
Epoch rev:             942
Checksum:              281

Satellite: EUTELSAT W1
Catalog number: 26487
Epoch time:      103019.89353010
Element set:     345 
Inclination:        0.0166 deg
RA of node:        80.1752 deg
Eccentricity:    0.0003955
Arg of perigee:   205.6248 deg
Mean anomaly:     164.6935 deg
Mean motion:    1.00272665 rev/day
Decay rate:    7.6999E-007 rev/day^2
Epoch rev:             872
Checksum:              410

Satellite: ASTRA 2B
Catalog number: 26494
Epoch time:      103013.00000000
Element set:     251 
Inclination:        0.0178 deg
RA of node:       354.5658 deg
Eccentricity:    0.0005000
Arg of perigee:   302.8402 deg
Mean anomaly:     202.8287 deg
Mean motion:    1.00276704 rev/day
Decay rate:    1.6899E-006 rev/day^2
Epoch rev:             855
Checksum:              240

Satellite: NOAA 16
Catalog number: 26536
Epoch time:      103021.02285524
Element set:     174 
Inclination:       98.8997 deg
RA of node:       329.5229 deg
Eccentricity:    0.0011084
Arg of perigee:    30.8026 deg
Mean anomaly:     329.3738 deg
Mean motion:   14.11887414 rev/day
Decay rate:    1.3500E-006 rev/day^2
Epoch rev:           12012
Checksum:              293

Satellite: SAUDISAT 1A
Catalog number: 26545
Epoch time:      103019.86079131
Element set:     400 
Inclination:       64.5587 deg
RA of node:       123.2247 deg
Eccentricity:    0.0054002
Arg of perigee:   243.5242 deg
Mean anomaly:     116.0339 deg
Mean motion:   14.78897968 rev/day
Decay rate:    1.7939E-005 rev/day^2
Epoch rev:           12482
Checksum:              411

Satellite: UNISAT
Catalog number: 26547
Epoch time:      103019.45651085
Element set:     419 
Inclination:       64.5573 deg
RA of node:       126.8153 deg
Eccentricity:    0.0061101
Arg of perigee:   246.0559 deg
Mean anomaly:     113.4083 deg
Mean motion:   14.79607983 rev/day
Decay rate:    3.2209E-005 rev/day^2
Epoch rev:           12473
Checksum:              301

Satellite: TIUNGSAT 1
Catalog number: 26548
Epoch time:      103020.73921451
Element set:     404 
Inclination:       64.5577 deg
RA of node:       113.7347 deg
Eccentricity:    0.0047125
Arg of perigee:   242.6085 deg
Mean anomaly:     117.0234 deg
Mean motion:   14.81169097 rev/day
Decay rate:    2.3709E-005 rev/day^2
Epoch rev:           12509
Checksum:              293

Satellite: SAUDISAT 1B
Catalog number: 26549
Epoch time:      103020.34923777
Element set:     670 
Inclination:       64.5496 deg
RA of node:       125.6847 deg
Eccentricity:    0.0058415
Arg of perigee:   243.6180 deg
Mean anomaly:     115.8907 deg
Mean motion:   14.77841897 rev/day
Decay rate:    2.0359E-005 rev/day^2
Epoch rev:           12482
Checksum:              435

Satellite: AMSAT OSCAR 40
Catalog number: 26609
Epoch time:      103018.40123252
Element set:     305 
Inclination:        7.9708 deg
RA of node:        69.8773 deg
Eccentricity:    0.7935358
Arg of perigee:   134.4243 deg
Mean anomaly:     325.7472 deg
Mean motion:    1.25596623 rev/day
Decay rate:   -1.1000E-007 rev/day^2
Epoch rev:            1019
Checksum:              372

Satellite: GOES 12
Catalog number: 26871
Epoch time:      103017.22389260
Element set:     776 
Inclination:        0.4716 deg
RA of node:        97.7371 deg
Eccentricity:    0.0000777
Arg of perigee:    39.9403 deg
Mean anomaly:     313.9601 deg
Mean motion:    1.00278668 rev/day
Decay rate:   -7.4000E-007 rev/day^2
Epoch rev:             551
Checksum:              294

Satellite: PCSAT
Catalog number: 26931
Epoch time:      103020.20165909
Element set:     381 
Inclination:       67.0477 deg
RA of node:       331.2154 deg
Eccentricity:    0.0005293
Arg of perigee:   258.2923 deg
Mean anomaly:     101.7584 deg
Mean motion:   14.29099685 rev/day
Decay rate:    4.0499E-006 rev/day^2
Epoch rev:            6815
Checksum:              417

Satellite: SAPPHIRE
Catalog number: 26932
Epoch time:      103020.88317938
Element set:     376 
Inclination:       67.0581 deg
RA of node:       329.1708 deg
Eccentricity:    0.0005861
Arg of perigee:   242.5818 deg
Mean anomaly:     117.4686 deg
Mean motion:   14.29283534 rev/day
Decay rate:    2.3299E-006 rev/day^2
Epoch rev:            6827
Checksum:              334

Satellite: ENVISAT
Catalog number: 27386
Epoch time:      103021.18181547
Element set:     864 
Inclination:       98.5486 deg
RA of node:        90.1423 deg
Eccentricity:    0.0000849
Arg of perigee:    89.4434 deg
Mean anomaly:     270.6897 deg
Mean motion:   14.32239804 rev/day
Decay rate:   -6.5099E-006 rev/day^2
Epoch rev:            4668
Checksum:              344

Satellite: IDEFIX/ARIANE 
Catalog number: 27422
Epoch time:      103020.87382093
Element set:     213 
Inclination:       98.6994 deg
RA of node:       100.2024 deg
Eccentricity:    0.0011943
Arg of perigee:   230.9983 deg
Mean anomaly:     129.0135 deg
Mean motion:   14.27954287 rev/day
Decay rate:    3.5400E-006 rev/day^2
Epoch rev:            3736
Checksum:              295

